Eckerty, Indiana
Current Conditions -  °F | °C
As of 5:15 AM on Thursday 29 Jan 2015 (Local Time) from KHNB Reporting Station
Few Clouds Few Clouds  
Wind Chill: 37°   Ceiling: Unl
Heat Index: 45°   Visibility: 10mi
Dew Point: 32°   Wind: 20mph
Humidity: 61%   Direction: 190°S
Pressure: 29.87"   Gusts: NA
Location:  38.32°N, 86.61°W
Report Text: KHNB 291015Z AUTO 19017KT 10SM FEW100 07/00 A2987 RMK AO1
Loading
Personal Weather Stations






























Interactive Weather Map New forecast layout! Learn more

10-Day Weather Forecast

Advertisements
Track Severe Weather on mobile